Regional Weather Roundup
Issued by NWS

Home | Current Version | Previous Version | Graphics & Text | Print | Product List | Glossary On
Versions: 1 2 3 4 5 6 7 8 9 10 11 12 13 14 15 16 17 18 19 20 21 22 23 24 25 26 27 28 29 30 31 32 33 34 35 36 37 38 39 40 41 42 43 44 45 46 47 48 49 50
000
ASUS43 KTOP 011208
RWRKS

WEATHER ROUNDUP FOR KANSAS
NATIONAL WEATHER SERVICE GOODLAND KS
700 AM CDT SUN MAY 01 2016

NOTE:  "FAIR" INDICATES FEW OR NO CLOUDS BELOW 12,000 FEET WITH NO
SIGNIFICANT WEATHER AND/OR OBSTRUCTIONS TO VISIBILITY.

KSZ001>006-013>018-027>032-041>047-011300-
NORTHWEST KANSAS

CITY           SKY/WX    TMP DP  RH WIND       PRES   REMARKS
GOODLAND       CLOUDY    35  33  92 N18G24    30.14R WCI  24
6HR MIN TEMP:  34; 6HR MAX TEMP:  35;

HAYS           CLOUDY    43  34  70 NW16G25   30.03R
HILL CITY      CLOUDY    40  37  89 NW13      30.08R WCI  32
6HR MIN TEMP:  40; 6HR MAX TEMP:  41; 6HR PCP: TRACE;

RUSSELL        CLOUDY    44  43  96 NW16      29.99R FOG
6HR MIN TEMP:  41; 6HR MAX TEMP:  44;

$$

KSZ061>065-074>080-084>089-011300-
SOUTHWEST KANSAS

CITY           SKY/WX    TMP DP  RH WIND       PRES   REMARKS
DODGE CITY     CLOUDY    39  34  82 NW20G28   30.08R WCI  29
6HR MIN TEMP:  37; 6HR MAX TEMP:  40;

ELKHART          N/A     40  30  67 NW17        N/A  WCI  31
GARDEN CITY    CLOUDY    38  33  82 NW20G28   30.10R WCI  28
6HR MIN TEMP:  38; 6HR MAX TEMP:  40;

GREAT BEND     CLOUDY    43  36  75 NW14      30.03R
LIBERAL        MOCLDY    41  30  65 NW18      30.12S
PRATT          CLOUDY    40  35  83 NW15      30.05R WCI  31
6HR MIN TEMP:  37; 6HR MAX TEMP:  40;

$$

KSZ066>073-081>083-090>101-011300-
SOUTHEAST KANSAS

CITY           SKY/WX    TMP DP  RH WIND       PRES   REMARKS
CHANUTE        CLEAR     46  42  86 W7        29.96R
6HR MIN TEMP:  44; 6HR MAX TEMP:  50;

COFFEYVILLE    CLEAR     47  44  90 W10       29.99R
6HR MIN TEMP:  45; 6HR MAX TEMP:  52;

HUTCHINSON     CLOUDY    44  38  79 W18       30.00R
6HR MIN TEMP:  43; 6HR MAX TEMP:  47;

MEDICINE LODGE   N/A     44  36  73 NW13      30.06R
NEWTON         PTCLDY    43  36  75 W10       30.01R
PARSONS        CLEAR     42  41  96 W3        29.99R
6HR MIN TEMP:  42; 6HR MAX TEMP:  50;

WICHITA INTL   CLOUDY    45  41  86 W9        30.01R
6HR MIN TEMP:  42; 6HR MAX TEMP:  48;

WICHITA JABRA  CLOUDY    44  40  85 W10       30.00R
6HR MIN TEMP:  42; 6HR MAX TEMP:  47;

WICHITA MCCONL MOCLDY    44  40  85 W6        30.01R
WINFIELD       PTCLDY    43  40  89 W7        30.03R
6HR MIN TEMP:  42; 6HR MAX TEMP:  48;

$$

KSZ007>012-019>026-033>040-048>060-102>105-011300-
NORTHEAST KANSAS

CITY           SKY/WX    TMP DP  RH WIND       PRES   REMARKS
CONCORDIA      LGT RAIN  45  44  97 NW9       29.95R FOG
6HR MIN TEMP:  43; 6HR MAX TEMP:  46; 6HR PCP: TRACE;

EMPORIA        PTCLDY    44  41  89 W8        29.95R
6HR MIN TEMP:  43; 6HR MAX TEMP:  49;

LAWRENCE       CLOUDY    46  44  93 W7        29.93R
6HR MIN TEMP:  45; 6HR MAX TEMP:  53;

MANHATTAN      CLOUDY    48  42  80 SW9       29.96R
6HR MIN TEMP:  48; 6HR MAX TEMP:  52;

MARYSVILLE     CLOUDY    46  45  93 W5        29.93R
OLATHE IND     PTCLDY    47  44  90 W6        29.93R
6HR MIN TEMP:  46; 6HR MAX TEMP:  54;

OLATHE EXE     PTCLDY    47  44  90 W5        29.92R
6HR MIN TEMP:  47; 6HR MAX TEMP:  54;

SALINA         CLOUDY    44  40  85 W9        29.98R
6HR MIN TEMP:  43; 6HR MAX TEMP:  47;

TOPEKA BILLARD CLOUDY    49  44  83 W6        29.93R
6HR MIN TEMP:  45; 6HR MAX TEMP:  54;

TOPEKA FORBES  PTCLDY    47  43  86 W8        29.93R
6HR MIN TEMP:  46; 6HR MAX TEMP:  53;

$$




USA.gov is the U.S. government's official web portal to all federal, state and local government web resources and services.